Tracking 29892 objects as of 21-Nov-2024
HD Live streaming from Space Station
objects crossing your sky now

STARLINK-30908

Track STARLINK-30908 now!
10-day predictions
STARLINK-30908 is classified as:


NORAD ID: 58424
Int'l Code: 2023-180Y
Perigee: 565.5 km
Apogee: 566.9 km
Inclination: 43.0 °
Period: 95.8 minutes
Semi major axis: 6937 km
RCS: Unknown
Launch date: November 22, 2023
Source: United States (US)
Launch site: AIR FORCE EASTERN TEST RANGE (AFETR)
Your satellite tracking list
Your tracking list is empty




NASA's NSSDC Master Catalog

Two Line Element Set (TLE):
1 58424U 23180Y   24325.80802348 -.00000383  00000-0 -13281-4 0  9991
2 58424  43.0023 109.7919 0001043 268.5467  91.5256 15.02536320 56319
Source of the keplerian elements: AFSPC